Location: Melbourne
(37.8170°S, 144.9670°E)
Time: 11:31:55
(UTC+10:00)

Vanguard 1 Rocket - Visible Passes

Search period start: 04 September 2015 00:00
Search period end: 14 September 2015 00:00
Orbit: 652 x 4226 km, 34.3° (Epoch: 02 September)

Date Brightness Start Highest point End Pass type
(mag) Time Alt. Az. Time Alt. Az. Time Alt. Az.
04 Sep 10.9 01:36:48 39° NE 01:36:48 39° NE 01:58:31 10° ESE visible
04 Sep 10.6 03:54:06 40° NW 04:06:43 70° NNE 04:30:53 10° E visible
04 Sep 10.7 06:13:42 10° W 06:40:28 81° N 06:59:44 10° E visible
05 Sep 11.3 00:29:39 23° ENE 00:29:39 23° ENE 00:41:30 10° E visible
05 Sep 10.5 02:46:56 54° N 02:51:47 60° NNE 03:16:55 10° ESE visible
05 Sep 10.7 05:04:12 21° WNW 05:25:03 80° N 05:47:19 10° E visible
06 Sep 10.7 01:39:43 46° NE 01:39:43 46° NE 02:01:55 10° ESE visible
06 Sep 10.5 03:56:59 41° NW 04:09:30 75° NNE 04:34:07 10° E visible
07 Sep 11.2 00:32:26 28° ENE 00:32:26 28° ENE 00:45:31 10° E visible
07 Sep 10.3 02:49:42 59° NNW 02:54:23 66° NNE 03:20:05 10° E visible
07 Sep 10.7 05:06:58 21° W 05:28:02 81° N 05:50:36 10° E visible
07 Sep 11.6 23:25:07 12° E 23:25:07 12° E 23:26:37 10° E visible
08 Sep 10.5 01:42:23 52° NE 01:42:23 52° NE 02:05:08 10° ESE visible
08 Sep 10.5 03:59:39 41° WNW 04:12:22 78° N 04:37:20 10° E visible
09 Sep 11.0 00:35:01 32° ENE 00:35:01 32° ENE 00:49:05 10° ESE visible
09 Sep 10.2 02:52:17 62° NNW 02:57:05 71° NNE 03:23:12 10° E visible
09 Sep 10.7 05:09:33 19° W 05:31:00 81° N 05:53:51 10° ENE visible
09 Sep 11.5 23:27:38 15° E 23:27:38 15° E 23:31:24 10° E visible
10 Sep 10.4 01:44:54 58° NE 01:44:54 58° NE 02:08:14 10° ESE visible
10 Sep 10.5 04:02:09 39° WNW 04:15:17 81° N 04:40:31 10° E visible
11 Sep 10.9 00:37:29 36° ENE 00:37:29 36° ENE 00:52:22 10° ESE visible
11 Sep 10.2 02:54:44 63° NW 02:59:53 75° NNE 03:26:18 10° E visible
11 Sep 10.7 05:12:00 18° W 05:33:57 79° N 05:57:02 10° ENE visible
11 Sep 11.4 23:30:02 18° E 23:30:02 18° E 23:35:22 10° E visible
12 Sep 10.3 01:47:18 64° NE 01:47:18 64° NE 02:11:16 10° E visible
12 Sep 10.5 04:04:33 37° W 04:18:15 81° N 04:43:42 10° E visible
13 Sep 10.8 00:39:51 40° E 00:39:51 40° E 00:55:28 10° ESE visible
13 Sep 10.1 02:57:06 62° NW 03:02:47 79° N 03:29:24 10° E visible
13 Sep 10.7 05:14:21 16° W 05:36:49 76° NNW 06:00:07 10° ENE visible
13 Sep 11.3 23:32:23 20° E 23:32:23 20° E 23:38:53 10° ESE visible
